Showing default

ORBCOMM FM 6, 25118

Orbit data source: Space-Track

ORBCOMM FM 6, 25118 is a payload satellite owned by Orbcomm (US) in LEO that was launched on Tue, 23 Dec 1997 UTC via a PEGASUS XL/HAPS launch vehicle from the Pegasus Launch, Eastern Range Air Space (ERAS). Payload-class satellites include a variety of spacecraft equipped with specific instruments for various scientific and technological missions. These include communications satellites like Starlink; space stations such as the ISS; scientific satellites like the Hubble; Earth observation satellites from companies like Planet Labs, Umbra, and HawkEye 360; GPS; miniature CubeSats for education and research; and military/defense satellites.

Loading next visibility...
Identifier
25118, 1997-084G
Orbit
LEO
Country
Flag of USUS / ORB
Related business
Manufacturer
OSC-Germantown
Mission
Operational Commercial Communications
Bus & Motor
MICROSTAR, Unknown motor
Mass
42 kg wet, 42 kg dry
Launch date (UTC)
1997-12-23 (28 years ago)
Launch vehicle
PEGASUS XL/HAPS
Launch site
Pegasus Launch, Eastern Range Air Space (ERAS)
Object type
Payload
Rocket body
Debris
Shape & HBR
Cyl + 2 Pan, 4.2 m
Radar Cross Section
1.484 m², Medium (>0.1 m² and < 1m²)

Expand to show TLE details & history
Last TLE update: 2 days ago

TLE from 2 days ago
0 ORBCOMM FM 6
1 25118U 97084G   26171.33789034  .00000856  00000-0  26971-3 0  9996
2 25118  45.0147  37.5444 0000857 343.3576 186.5581 14.47568941494840
Epoch: 2026-06-20T08:06Z
TLE epoch observation values (Epoch: 2026-06-20T08:06:33.725Z)
Latitude
7.09653°
Longitude
-179.75951°
Altitude
733.564 km
Speed
7.49 km/s
True Right ascension
14h 01m 44s
True Declination
7° 03' 16"
Sunlit
Object was in daylight at epoch
Visualization orbit readout
Latitude
Unknown
Longitude
Unknown
Altitude
Unknown
Speed
Unknown
Apparent Right ascension
Unknown
Apparent Declination
Unknown
Sunlit
N/A
Visualization observer readout
Local Sidereal Time
23:09:08
Azimuth
Unknown
Elevation
Unknown
Doppler factor
Unknown
Orbital elements
Apogee altitude
735.76 km
Perigee altitude
734.541 km
Semi-major axis
7,113.287 km
Eccentricity
0.00009
Inclination
45.0147°
RAAN
37.5444°
Arg. of periapsis
343.3576°
True anomaly
186.55698°
Mean anomaly
186.5581°
Eccentric anomaly
186.55754°
Mean motion
3.61774 °/min
Orbital period
99.51 mins
BSTAR
0.00026971
Loading maneuver chart data...
Computing Atmospheric mass density...

Documentation

Showing up to 5 results
|